Hourly Weather Cislitsa-Prut

Today, 19 October, Monday

Time Temperature Precipitation Wind Pressure Humidity
00:00 +10°C° 0 mm 3 mps 760 mmHg 63%
01:00 +10°C° 0 mm 2 mps 761 mmHg 65%
02:00 +9°C° 0 mm 2 mps 761 mmHg 66%
03:00 +9°C° 0 mm 2 mps 761 mmHg 67%
04:00 +9°C° 0 mm 2 mps 762 mmHg 69%
05:00 +9°C° 0 mm 2 mps 762 mmHg 70%
06:00 +9°C° 0 mm 3 mps 762 mmHg 69%
07:00 +10°C° 0 mm 3 mps 763 mmHg 68%
08:00 +10°C° 0 mm 3 mps 763 mmHg 67%
09:00 +11°C° 0 mm 3 mps 764 mmHg 62%
10:00 +13°C° 0 mm 2 mps 764 mmHg 58%
11:00 +14°C° 0 mm 2 mps 764 mmHg 54%
12:00 +15°C° 0 mm 2 mps 764 mmHg 49%
13:00 +15°C° 0 mm 2 mps 764 mmHg 45%
14:00 +16°C° 0 mm 2 mps 764 mmHg 41%
15:00 +15°C° 0 mm 2 mps 764 mmHg 42%
16:00 +15°C° 0 mm 1 mps 764 mmHg 44%
17:00 +14°C° 0 mm 1 mps 764 mmHg 45%
18:00 +13°C° 0 mm 1 mps 764 mmHg 47%
19:00 +12°C° 0 mm 0 mps 765 mmHg 48%
20:00 +11°C° 0 mm 0 mps 765 mmHg 50%
21:00 +11°C° 0 mm 0 mps 765 mmHg 51%
22:00 +11°C° 0 mm 1 mps 765 mmHg 53%
23:00 +11°C° 0 mm 1 mps 766 mmHg 54%

Tomorrow, 20 October, Tuesday

Time Temperature Precipitation Wind Pressure Humidity
00:00 +11°C° 0 mm 1 mps 766 mmHg 56%
01:00 +10°C° 0 mm 1 mps 766 mmHg 58%
02:00 +10°C° 0 mm 1 mps 766 mmHg 59%
03:00 +10°C° 0 mm 1 mps 766 mmHg 61%
04:00 +8°C° 0 mm 0 mps 766 mmHg 62%
05:00 +8°C° 0 mm 0 mps 766 mmHg 63%
06:00 +9°C° 0 mm 0 mps 766 mmHg 61%
07:00 +9°C° 0 mm 0 mps 766 mmHg 59%
08:00 +10°C° 0 mm 0 mps 767 mmHg 57%
09:00 +13°C° 0 mm 1 mps 767 mmHg 52%
10:00 +14°C° 0 mm 1 mps 767 mmHg 47%
11:00 +15°C° 0 mm 1 mps 766 mmHg 43%
12:00 +16°C° 0 mm 2 mps 766 mmHg 41%
13:00 +17°C° 0 mm 2 mps 766 mmHg 39%
14:00 +17°C° 0 mm 2 mps 766 mmHg 37%
15:00 +16°C° 0 mm 2 mps 766 mmHg 40%
16:00 +16°C° 0 mm 1 mps 766 mmHg 42%
17:00 +15°C° 0 mm 1 mps 766 mmHg 45%
18:00 +13°C° 0 mm 0 mps 766 mmHg 47%
19:00 +12°C° 0 mm 0 mps 767 mmHg 48%
20:00 +12°C° 0 mm 0 mps 767 mmHg 50%
21:00 +12°C° 0 mm 1 mps 767 mmHg 53%
22:00 +12°C° 0 mm 2 mps 767 mmHg 56%
23:00 +12°C° 0 mm 2 mps 767 mmHg 58%

Day after tomorrow, 21 October, Wednesday

Time Temperature Precipitation Wind Pressure Humidity
00:00 +10°C° 0 mm 2 mps 767 mmHg 62%
01:00 +10°C° 0 mm 3 mps 767 mmHg 65%
02:00 +10°C° 0 mm 3 mps 766 mmHg 68%
03:00 +10°C° 0 mm 3 mps 766 mmHg 70%
04:00 +9°C° 0 mm 3 mps 766 mmHg 71%
05:00 +8°C° 0 mm 4 mps 766 mmHg 73%
06:00 +10°C° 0 mm 4 mps 766 mmHg 71%
07:00 +10°C° 0 mm 5 mps 766 mmHg 68%
08:00 +10°C° 0 mm 5 mps 766 mmHg 66%
09:00 +13°C° 0 mm 6 mps 765 mmHg 60%
10:00 +14°C° 0 mm 6 mps 765 mmHg 54%
11:00 +16°C° 0 mm 7 mps 765 mmHg 47%
12:00 +16°C° 0 mm 7 mps 764 mmHg 45%
13:00 +17°C° 0 mm 7 mps 764 mmHg 43%
14:00 +18°C° 0 mm 7 mps 763 mmHg 41%
15:00 +17°C° 0 mm 6 mps 763 mmHg 43%
16:00 +16°C° 0 mm 5 mps 763 mmHg 44%
17:00 +15°C° 0 mm 5 mps 762 mmHg 46%
18:00 +15°C° 0 mm 5 mps 762 mmHg 47%
19:00 +14°C° 0 mm 5 mps 762 mmHg 49%
20:00 +14°C° 0 mm 5 mps 762 mmHg 50%
21:00 +13°C° 0 mm 5 mps 762 mmHg 50%
22:00 +13°C° 0 mm 5 mps 762 mmHg 50%
23:00 +13°C° 0 mm 5 mps 762 mmHg 50%

22 October, Thursday

Time Temperature Precipitation Wind Pressure Humidity
00:00 +12°C° 0 mm 5 mps 762 mmHg 52%
01:00 +12°C° 0 mm 5 mps 762 mmHg 53%
02:00 +10°C° 0 mm 5 mps 762 mmHg 54%
03:00 +11°C° 0 mm 4 mps 761 mmHg 56%
04:00 +10°C° 0 mm 4 mps 761 mmHg 58%
05:00 +10°C° 0 mm 3 mps 761 mmHg 60%
06:00 +10°C° 0 mm 3 mps 761 mmHg 58%
07:00 +11°C° 0 mm 3 mps 761 mmHg 57%
08:00 +11°C° 0 mm 3 mps 761 mmHg 55%
09:00 +13°C° 0 mm 3 mps 762 mmHg 48%
10:00 +16°C° 0 mm 2 mps 762 mmHg 41%
11:00 +18°C° 0 mm 2 mps 762 mmHg 34%
12:00 +19°C° 0 mm 2 mps 762 mmHg 31%
13:00 +20°C° 0 mm 2 mps 761 mmHg 28%
14:00 +23°C° 0 mm 2 mps 761 mmHg 25%
15:00 +20°C° 0 mm 2 mps 761 mmHg 29%
16:00 +19°C° 0 mm 2 mps 761 mmHg 32%
17:00 +18°C° 0 mm 2 mps 761 mmHg 35%
18:00 +17°C° 0 mm 2 mps 761 mmHg 38%
19:00 +16°C° 0 mm 1 mps 761 mmHg 41%
20:00 +16°C° 0 mm 1 mps 761 mmHg 44%
21:00 +15°C° 0 mm 1 mps 761 mmHg 47%
22:00 +15°C° 0 mm 1 mps 761 mmHg 49%
23:00 +14°C° 0 mm 1 mps 761 mmHg 51%

23 October, Friday

Time Temperature Precipitation Wind Pressure Humidity
00:00 +14°C° 0 mm 1 mps 761 mmHg 53%
01:00 +13°C° 0 mm 1 mps 761 mmHg 55%
02:00 +13°C° 0 mm 1 mps 760 mmHg 57%
03:00 +12°C° 0 mm 1 mps 760 mmHg 58%
04:00 +12°C° 0 mm 1 mps 760 mmHg 60%
05:00 +12°C° 0 mm 1 mps 760 mmHg 61%
06:00 +12°C° 0 mm 2 mps 760 mmHg 60%
07:00 +13°C° 0 mm 2 mps 760 mmHg 58%
08:00 +13°C° 0 mm 2 mps 760 mmHg 57%
09:00 +15°C° 0 mm 2 mps 760 mmHg 50%
10:00 +17°C° 0 mm 3 mps 760 mmHg 44%
11:00 +19°C° 0 mm 3 mps 759 mmHg 37%
12:00 +20°C° 0 mm 4 mps 759 mmHg 35%
13:00 +21°C° 0 mm 4 mps 758 mmHg 32%
14:00 +22°C° 0 mm 4 mps 758 mmHg 30%
15:00 +21°C° 0 mm 4 mps 758 mmHg 34%
16:00 +20°C° 0 mm 3 mps 757 mmHg 37%
17:00 +19°C° 0 mm 3 mps 757 mmHg 41%
18:00 +18°C° 0 mm 3 mps 757 mmHg 43%
19:00 +17°C° 0 mm 3 mps 757 mmHg 45%
20:00 +16°C° 0 mm 3 mps 757 mmHg 48%
21:00 +16°C° 0 mm 3 mps 757 mmHg 49%
22:00 +14°C° 0 mm 3 mps 757 mmHg 50%
23:00 +15°C° 0 mm 2 mps 757 mmHg 51%

24 October, Saturday

Time Temperature Precipitation Wind Pressure Humidity
00:00 +14°C° 0 mm 2 mps 757 mmHg 52%
01:00 +14°C° 0 mm 2 mps 757 mmHg 54%
02:00 +13°C° 0 mm 2 mps 757 mmHg 55%
03:00 +13°C° 0 mm 2 mps 757 mmHg 56%
04:00 +13°C° 0 mm 1 mps 757 mmHg 57%
05:00 +12°C° 0 mm 1 mps 757 mmHg 58%
06:00 +13°C° 0 mm 1 mps 757 mmHg 57%
07:00 +13°C° 0 mm 1 mps 757 mmHg 55%
08:00 +14°C° 0 mm 1 mps 757 mmHg 54%
09:00 +16°C° 0 mm 1 mps 757 mmHg 49%
10:00 +17°C° 0 mm 2 mps 757 mmHg 44%
11:00 +19°C° 0 mm 2 mps 757 mmHg 39%
12:00 +20°C° 0 mm 2 mps 757 mmHg 37%
13:00 +21°C° 0 mm 2 mps 757 mmHg 34%
14:00 +23°C° 0 mm 2 mps 757 mmHg 32%
15:00 +21°C° 0 mm 2 mps 757 mmHg 35%
16:00 +21°C° 0 mm 1 mps 757 mmHg 38%
17:00 +20°C° 0 mm 1 mps 756 mmHg 41%
18:00 +20°C° 0 mm 1 mps 757 mmHg 43%
19:00 +18°C° 0 mm 2 mps 757 mmHg 45%
20:00 +18°C° 0 mm 2 mps 757 mmHg 46%
21:00 +18°C° 0 mm 2 mps 758 mmHg 48%
22:00 +18°C° 0 mm 3 mps 758 mmHg 51%
23:00 +17°C° 0 mm 3 mps 758 mmHg 53%

25 October, Sunday

Time Temperature Precipitation Wind Pressure Humidity
00:00 +17°C° 0 mm 4 mps 758 mmHg 56%
01:00 +16°C° 0 mm 5 mps 758 mmHg 59%
02:00 +15°C° 0 mm 6 mps 758 mmHg 62%
03:00 +15°C° 0 mm 5 mps 759 mmHg 68%
04:00 +14°C° 0 mm 4 mps 759 mmHg 74%
05:00 +14°C° 0 mm 4 mps 759 mmHg 80%
06:00 +14°C° 0 mm 3 mps 759 mmHg 78%
07:00 +14°C° 0 mm 3 mps 759 mmHg 76%
08:00 +14°C° 0 mm 3 mps 759 mmHg 74%
09:00 +16°C° 0 mm 3 mps 760 mmHg 70%
10:00 +17°C° 0 mm 4 mps 760 mmHg 65%
11:00 +18°C° 0 mm 4 mps 760 mmHg 60%
12:00 +19°C° 0 mm 4 mps 760 mmHg 58%
13:00 +19°C° 0 mm 4 mps 760 mmHg 56%
14:00 +20°C° 0 mm 4 mps 760 mmHg 54%
15:00 +19°C° 0 mm 4 mps 760 mmHg 57%
16:00 +19°C° 0 mm 3 mps 760 mmHg 61%
17:00 +18°C° 0 mm 3 mps 760 mmHg 64%
18:00 +18°C° 0 mm 3 mps 760 mmHg 67%
19:00 +17°C° 0 mm 4 mps 760 mmHg 70%
20:00 +15°C° 0 mm 4 mps 760 mmHg 73%
21:00 +15°C° 0 mm 4 mps 760 mmHg 74%
22:00 +15°C° 0 mm 4 mps 761 mmHg 74%
23:00 +15°C° 0 mm 4 mps 761 mmHg 75%
Show more

We Need Your Consent

Meteoprog and our Service Providers may store and access personal data such as cookies, device identifiers or other similar technologies on your device and process such data to personalise content and ads, as well as provide social media features and to analyse the traffic.

  • Store and/or access information on your device

    Cookies, device identifiers or other information can be stored or accessed on your device for the purposes indicated above.

  • Personalised ads and content, ad and content measurement, audience insights, and products development

    Ads and content can be personalised based on a profile. More data can be added to better personalise ads and content. Ad and content performance can be measured. Insights about the audience who saw the ads and content can be derived. Such data can be used to develop or improve user’s experience, systems and software.

By clicking ‘I Agree’ you will allow the use of indicated cookies, device identifiers, web beacons or other similar technologies. Your settings can be changed in the browser on your device.

For certain purposes, legitimate interests may be relied on, rather than consent. You can read more about this in our Privacy and Cookie Policy.